Weather History for KHBG - February, 2013

Change the Weather History Date:

Wednesday, February 27, 2013

  Actual Average Record
Temperature  
Mean Temperature 54 °F 55 °F  
Max Temperature 69 °F 67 °F 84 °F (1951)
Min Temperature 39 °F 43 °F 22 °F (1974)
Degree Days  
Heating Degree Days 11 10  
Month to date heating degree days 294 368  
Since 1 July heating degree days 1373 1667  
Cooling Degree Days 0 1  
Month to date cooling degree days 0 2  
Year to date cooling degree days 28 8  
Growing Degree Days 4 (Base 50)    
Moisture  
Dew Point 38 °F    
Average Humidity 60    
Maximum Humidity 92    
Minimum Humidity 28    
Precipitation  
Precipitation T in 0.19 in 2.47 in (1984)
Month to date precipitation 10.50 5.19  
Year to date precipitation 18.43 10.93  
Sea Level Pressure  
Sea Level Pressure 29.98 in    
Wind  
Wind Speed 4 mph (WNW)    
Max Wind Speed 15 mph    
Max Gust Speed 31 mph    
Visibility 10 miles    
Events      
T = Trace of Precipitation, MM = Missing Value Source: NWS Daily Summary

Daily Weather History Graph

Daily Weather History Graph

Search for Another Location

Airport or City:

Trip Planner

Search our weather history database for the weather conditions in past years. The results will help you decide how hot, cold, wet, or windy it might be!

Date:

Astronomy

Feb. 27, 2013 Rise Set
Actual Time 6:25 AM CST 5:54 PM CST
Civil Twilight 6:01 AM CST 6:18 PM CST
Nautical Twilight 5:33 AM CST 6:46 PM CST
Astronomical Twilight 5:05 AM CST 7:14 PM CST
Moon 8:02 PM CST (2/27) 7:11 AM CST (2/27)
Length of Visible Light 12h 17m
Length of Day
11h 28m
Waning Gibbous, 96% of the Moon is Illuminated
Feb 27
Waning Gibbous
Mar 4
Last Quarter
Mar 11
New
Mar 19
First Quarter
Mar 27
Full

Hourly Weather History & Observations

Time (CST) Temp. Dew Point Humidity Pressure Visibility Wind Dir Wind Speed Gust Speed Precip Events Conditions
12:53 AM 41.0 °F 37.0 °F 86% 29.95 in 10.0 mi Calm Calm - N/A   Clear
1:53 AM 39.9 °F 37.0 °F 89% 29.95 in 10.0 mi Calm Calm - N/A   Clear
2:53 AM 39.9 °F 37.0 °F 89% 29.95 in 10.0 mi Calm Calm - N/A   Clear
3:53 AM 39.9 °F 37.0 °F 89% 29.95 in 10.0 mi Calm Calm - N/A   Clear
4:53 AM 39.9 °F 37.0 °F 89% 29.96 in 10.0 mi Calm Calm - N/A   Clear
5:53 AM 39.9 °F 37.0 °F 89% 29.96 in 10.0 mi Calm Calm - N/A   Clear
6:53 AM 39.9 °F 37.0 °F 89% 29.98 in 10.0 mi Calm Calm - N/A   Clear
7:53 AM 43.0 °F 39.0 °F 86% 30.00 in 10.0 mi Calm Calm - N/A   Clear
8:53 AM 48.0 °F 42.1 °F 80% 30.03 in 10.0 mi Calm Calm - N/A   Clear
9:53 AM 55.0 °F 39.0 °F 55% 30.03 in 10.0 mi Calm Calm - N/A   Clear
10:53 AM 60.1 °F 37.0 °F 42% 30.02 in 10.0 mi WSW 6.9 mph - N/A   Clear
11:53 AM 63.0 °F 36.0 °F 37% 30.00 in 10.0 mi WSW 13.8 mph 18.4 mph N/A   Clear
12:53 PM 64.9 °F 36.0 °F 34% 29.97 in 10.0 mi NNW 8.1 mph - N/A   Clear
1:53 PM 66.9 °F 36.0 °F 32% 29.95 in 10.0 mi West 11.5 mph 19.6 mph 0.00 in   Clear
2:53 PM 68.0 °F 35.1 °F 30% 29.93 in 10.0 mi West 11.5 mph 16.1 mph N/A   Clear
3:53 PM 69.1 °F 35.1 °F 29% 29.93 in 10.0 mi NW 8.1 mph 19.6 mph N/A   Clear
4:53 PM 66.9 °F 36.0 °F 32% 29.94 in 10.0 mi WNW 11.5 mph - N/A   Partly Cloudy
5:53 PM 62.1 °F 37.0 °F 39% 29.95 in 10.0 mi NW 4.6 mph - N/A   Clear
6:53 PM 55.0 °F 41.0 °F 59% 29.96 in 10.0 mi Calm Calm - N/A   Clear
7:53 PM 54.0 °F 41.0 °F 62% 29.99 in 10.0 mi NW 3.5 mph - N/A   Mostly Cloudy
8:53 PM 50.0 °F 43.0 °F 77% 30.00 in 10.0 mi Calm Calm - N/A   Partly Cloudy
9:53 PM 48.9 °F 42.1 °F 77% 30.02 in 10.0 mi Calm Calm - N/A   Mostly Cloudy
10:53 PM 48.0 °F 42.1 °F 80% 30.01 in 10.0 mi Calm Calm - N/A   Scattered Clouds
11:53 PM 50.0 °F 37.9 °F 63% 30.03 in 10.0 mi NW 5.8 mph - N/A   Partly Cloudy